Scottsbluff, NE

7:45 PM MDT on September 23, 2017 (GMT -0600)
Heilig

Weather History for KBFF - December, 2013

Change the Weather History Date:

Saturday, December 21, 2013

  Actual Average Record
Temperature  
Mean Temperature 22 °F 25 °F  
Max Temperature 34 °F 39 °F 64 °F (1933)
Min Temperature 10 °F 12 °F -31 °F (1989)
Degree Days  
Heating Degree Days 43 40  
Month to date heating degree days 869 813  
Since 1 July heating degree days 2374 2378  
Cooling Degree Days 0 0  
Month to date cooling degree days 0 0  
Year to date cooling degree days 1047 724  
Moisture  
Dew Point 17 °F    
Average Humidity 78    
Maximum Humidity 88    
Minimum Humidity 68    
Precipitation  
Precipitation T in 0.02 in 0.29 in (1920)
Month to date precipitation 0.54 0.35  
Year to date precipitation 13.28 15.63  
Snow  
Snow T in 0.30 in 3.50 in (1920)
Month to date snowfall 9.4 4.9  
Since 1 July snowfall 22.3 13.8  
Snow Depth 0.00 in    
Sea Level Pressure  
Sea Level Pressure 29.81 in    
Wind  
Wind Speed 6 mph (NNW)    
Max Wind Speed 16 mph    
Max Gust Speed 21 mph    
Visibility 10 miles    
Events Snow    
T = Trace of Precipitation, MM = Missing Value Source: NWS Daily Summary

Daily Weather History Graph

Daily Weather History Graph

Search for Another Location

Airport or City:

Trip Planner

Search our weather history database for the weather conditions in past years. The results will help you decide how hot, cold, wet, or windy it might be!

Date:

Astronomy

Dec. 21, 2013 Rise Set
Actual Time 7:18 AM MST 4:26 PM MST
Civil Twilight 6:47 AM MST 4:58 PM MST
Nautical Twilight 6:11 AM MST 5:33 PM MST
Astronomical Twilight 5:37 AM MST 6:07 PM MST
Moon 8:48 PM MST (12/21) 9:42 AM MST (12/21)
Length of Visible Light 10h 11m
Length of Day
9h 07m
Waning Gibbous, 84% of the Moon is Illuminated
Dec 21
Waning Gibbous
Dec 25
Last Quarter
Jan 1
New
Jan 7
First Quarter
Jan 15
Full

Hourly Weather History & Observations

Time (MST) Temp. Windchill Dew Point Humidity Pressure Visibility Wind Dir Wind Speed Gust Speed Precip Events Conditions
12:53 AM 14.0 °F 5.1 °F 10.0 °F 84% 29.73 in 10.0 mi East 5.8 mph - N/A   Clear
1:53 AM 14.0 °F 5.1 °F 9.0 °F 80% 29.73 in 10.0 mi East 5.8 mph - N/A   Clear
2:53 AM 14.0 °F 6.5 °F 9.0 °F 80% 29.71 in 10.0 mi East 4.6 mph - N/A   Clear
3:53 AM 12.0 °F - 7.0 °F 80% 29.70 in 10.0 mi Calm Calm - N/A   Clear
4:53 AM 12.9 °F - 9.0 °F 84% 29.70 in 10.0 mi Calm Calm - N/A   Clear
5:53 AM 12.0 °F 4.1 °F 8.1 °F 84% 29.74 in 10.0 mi SSE 4.6 mph - N/A   Clear
6:53 AM 10.9 °F 2.9 °F 7.0 °F 84% 29.76 in 10.0 mi East 4.6 mph - N/A   Clear
7:53 AM 18.0 °F 11.1 °F 12.9 °F 81% 29.77 in 9.0 mi East 4.6 mph - N/A   Overcast
8:53 AM 19.9 °F 14.9 °F 16.0 °F 85% 29.78 in 8.0 mi SSE 3.5 mph - N/A   Overcast
9:53 AM 23.0 °F - 19.0 °F 85% 29.78 in 8.0 mi Calm Calm - N/A   Partly Cloudy
10:53 AM 28.0 °F 19.3 °F 21.9 °F 78% 29.77 in 10.0 mi WNW 9.2 mph - N/A   Scattered Clouds
11:53 AM 30.9 °F 21.2 °F 21.0 °F 67% 29.76 in 10.0 mi WNW 12.7 mph - N/A   Overcast
12:53 PM 32.0 °F 24.2 °F 25.0 °F 75% 29.75 in 7.0 mi West 9.2 mph - 0.00 in Snow Light Snow
1:19 PM 33.8 °F 24.8 °F 24.8 °F 70% 29.65 in 10.0 mi West 12.7 mph - 0.00 in   Overcast
1:46 PM 33.8 °F 27.7 °F 26.6 °F 75% 29.65 in 10.0 mi West 6.9 mph - 0.00 in   Overcast
1:53 PM 34.0 °F 26.6 °F 27.0 °F 75% 29.76 in 10.0 mi WNW 9.2 mph - 0.00 in   Overcast
2:53 PM 32.0 °F 23.6 °F 26.1 °F 79% 29.80 in 6.0 mi NNW 10.4 mph - 0.00 in   Haze
3:53 PM 30.9 °F 21.2 °F 21.9 °F 69% 29.84 in 10.0 mi NNW 12.7 mph - N/A   Overcast
4:14 PM 28.4 °F 18.0 °F 21.2 °F 74% 29.74 in 10.0 mi North 12.7 mph - N/A   Overcast
4:21 PM 28.4 °F 18.5 °F 21.2 °F 74% 29.74 in 10.0 mi North 11.5 mph - N/A   Overcast
4:53 PM 27.0 °F 18.7 °F 19.0 °F 72% 29.90 in 10.0 mi North 8.1 mph - N/A   Overcast
5:53 PM 25.0 °F 16.3 °F 17.1 °F 72% 29.94 in 10.0 mi NNW 8.1 mph - N/A   Mostly Cloudy
6:53 PM 24.1 °F 15.2 °F 15.1 °F 69% 29.97 in 10.0 mi NNW 8.1 mph - N/A   Overcast
7:53 PM 23.0 °F 17.0 °F 15.1 °F 72% 29.97 in 10.0 mi NW 4.6 mph - N/A   Overcast
8:53 PM 23.0 °F - 17.1 °F 78% 29.98 in 10.0 mi Calm Calm - N/A   Overcast
9:53 PM 23.0 °F - 18.0 °F 81% 29.99 in 10.0 mi Calm Calm - N/A   Overcast
10:53 PM 25.0 °F 19.3 °F 19.9 °F 81% 29.99 in 10.0 mi West 4.6 mph - N/A   Overcast
11:53 PM 26.1 °F 17.6 °F 19.0 °F 75% 29.99 in 10.0 mi WNW 8.1 mph - N/A   Overcast